Wind_Speed
13 14 15 16 17 18 19 20 20 20 20 21 20 19 19 18 17 16 15 15 15 15 14 16 21 24 25 25 24 23 22 20 19 18 17 17 17 18 18 17 17 17 17 17 17 16 16 15 14 14 12 11 10 9 8 7 6 5 4 4 4 4 5 5 5 5 4 3 3 3 2 2 3 3 3 4 4 5 6 7 8 9 9 9 8
15 15 17 19 20 20 21 21 22 22 21 21 21 20 21 21 20 18 18 17 16 16 16 15 18 24 27 27 26 26 25 23 22 20 19 19 18 19 19 20 19 19 19 20 19 18 17 17 16 15 14 13 12 11 10 9 8 7 6 6 5 4 4 5 5 5 4 4 3 3 2 2 1 2 2 3 3 4 6 7 8 8 9 9 9
15 16 17 20 22 23 24 23 24 24 24 24 22 22 22 23 23 23 21 20 18 17 17 16 16 20 25 28 28 27 27 27 26 24 22 21 21 20 20 21 22 22 21 22 21 20 19 18 18 17 15 14 13 12 11 11 10 9 8 8 7 6 5 5 5 5 5 5 4 3 3 2 1 1 1 2 3 4 5 7 7 8 9 9 9
14 16 18 21 23 24 24 25 25 24 24 26 26 24 23 24 26 27 25 24 22 20 18 18 17 17 21 25 28 28 29 29 29 28 26 24 23 22 21 22 23 24 24 24 23 23 22 20 19 19 18 16 15 14 13 12 12 11 10 10 9 8 6 5 5 5 5 5 5 4 4 3 2 1 1 2 2 3 5 6 7 8 8 9 9
18 20 23 24 23 23 24 24 24 23 22 24 27 28 27 26 28 29 29 28 26 24 21 20 19 18 19 22 25 28 29 30 30 30 29 28 26 24 23 23 24 25 26 26 25 25 24 23 21 21 20 19 17 16 15 14 13 13 12 11 10 10 9 7 6 5 5 6 6 5 5 5 4 3 2 2 2 2 4 5 6 7 8 8 8
23 23 24 24 22 21 23 24 24 22 21 22 26 29 30 30 30 31 31 30 29 28 25 23 22 20 19 21 23 26 28 29 31 31 32 31 29 27 25 24 25 25 26 27 28 27 26 25 24 23 22 21 20 18 17 15 14 14 13 13 12 11 10 9 8 7 6 6 6 6 6 5 5 4 3 2 2 2 3 4 5 6 7 8 8
27 25 24 24 23 21 21 24 25 23 23 24 26 29 32 33 33 34 34 33 31 30 29 27 25 23 22 21 22 24 25 28 30 32 32 32 31 29 28 26 26 27 27 28 29 29 28 27 26 25 24 23 22 20 19 17 16 15 15 14 13 12 12 11 10 8 8 7 6 6 6 5 4 4 3 3 2 2 2 3 4 4 5 7 7
30 27 23 22 23 23 23 24 24 23 22 24 26 30 32 34 34 35 36 35 33 31 31 30 28 27 25 22 21 23 24 26 28 31 32 32 32 32 30 28 27 28 28 28 29 30 30 29 28 27 26 26 25 23 21 20 19 18 17 16 15 14 13 12 11 10 9 8 8 7 6 5 4 3 3 3 2 2 2 2 3 3 4 5 6
34 30 24 21 22 24 25 25 26 26 26 26 28 29 31 32 32 33 35 36 34 31 31 31 30 29 28 25 23 23 24 26 27 29 31 32 33 33 33 31 30 29 29 30 30 31 32 31 30 29 28 28 27 26 24 22 21 20 19 17 16 15 14 13 12 11 10 9 9 8 7 6 5 4 3 3 3 3 2 2 2 2 3 3 5
31 29 28 28 27 24 24 25 27 29 31 32 33 32 31 31 31 32 33 34 34 32 30 32 32 31 30 28 26 25 25 26 27 28 30 31 32 33 34 33 32 32 31 31 31 32 33 34 33 32 30 30 29 28 27 25 23 22 20 19 18 16 15 14 13 12 11 10 10 9 9 8 7 6 5 4 4 4 3 3 2 2 1 2 3
30 28 30 33 30 26 26 27 28 30 34 35 35 34 33 32 33 32 32 32 32 32 31 31 32 33 32 32 30 29 28 27 27 27 28 29 30 31 33 33 34 34 33 33 33 33 33 35 35 34 33 32 31 30 29 27 25 24 22 20 19 18 17 16 14 13 12 11 11 10 9 9 9 8 7 6 6 5 5 4 4 3 3 2 2
30 29 29 32 31 28 29 30 30 32 35 37 37 37 35 33 32 31 30 31 32 31 31 31 32 33 33 33 33 32 31 29 28 27 27 28 29 29 31 32 33 34 35 35 35 35 35 35 36 37 35 34 33 32 31 29 27 26 24 23 21 19 18 17 16 15 14 13 12 11 11 10 10 10 9 9 8 7 7 6 6 5 5 4 3
28 28 28 30 31 30 30 31 32 32 35 38 39 40 38 35 34 33 33 34 35 34 33 34 34 34 34 34 33 34 33 32 30 28 28 28 28 29 29 30 31 33 35 36 36 36 36 36 37 38 38 37 36 34 33 31 29 28 27 25 23 22 20 18 17 16 16 15 14 13 12 11 11 11 10 10 10 10 9 8 8 7 7 6 5
28 28 27 28 30 31 31 31 32 33 34 37 39 39 39 39 38 36 35 35 37 37 35 36 36 36 36 35 34 35 35 33 31 30 30 30 30 30 29 28 29 31 34 36 37 37 37 37 37 39 40 39 38 36 35 33 31 30 29 27 25 23 22 20 19 18 17 16 15 14 14 13 12 11 11 11 11 11 11 11 10 9 8 8 7
32 32 30 29 29 30 31 31 32 33 33 35 37 38 40 43 42 39 36 34 36 39 38 36 36 37 38 36 35 37 36 34 32 32 34 34 32 31 30 29 29 30 32 34 37 38 39 39 38 38 41 42 40 38 37 35 33 32 30 29 27 25 23 22 21 20 19 18 17 16 14 14 13 12 12 11 11 12 12 12 12 11 11 10 10
35 34 33 31 31 31 30 30 31 32 32 32 35 37 39 44 46 46 44 40 37 40 41 39 38 40 40 38 38 38 37 33 32 34 36 34 32 32 32 31 30 29 29 32 35 38 39 40 39 38 40 43 42 40 38 37 35 34 32 30 29 26 25 24 23 22 21 19 18 16 15 14 13 13 12 12 12 12 12 12 13 13 12 12 11
34 33 33 32 32 32 31 30 30 32 32 32 33 35 36 40 44 48 48 45 41 41 44 44 43 44 44 41 39 39 37 35 35 35 35 33 32 33 32 32 31 29 28 30 34 37 40 40 40 39 39 42 44 43 40 39 37 36 34 32 31 28 27 26 24 23 22 20 19 17 16 15 14 14 13 13 12 12 12 13 13 14 14 13 13
34 34 34 33 33 33 33 31 32 34 34 34 34 34 35 36 39 43 45 45 44 42 43 45 45 45 46 44 41 41 39 38 37 35 34 33 33 33 32 32 32 30 29 29 32 36 39 41 41 40 40 41 44 45 43 41 40 38 36 34 33 31 28 27 26 25 23 22 21 19 18 17 16 15 14 14 14 13 13 13 14 15 15 15 15
35 36 36 35 34 35 35 35 34 36 37 36 36 36 36 35 36 39 41 42 44 45 44 44 46 46 46 45 44 45 44 40 39 38 36 34 34 34 32 32 32 31 30 30 32 36 38 40 42 42 41 41 43 46 45 43 42 40 38 36 35 32 30 28 27 26 25 24 23 21 20 18 17 17 16 16 15 15 15 14 15 15 16 16 16
37 37 38 37 36 36 36 37 37 38 39 39 39 38 37 36 36 36 38 39 41 45 45 44 45 47 47 46 45 47 48 45 43 42 39 35 35 35 32 31 32 32 32 32 33 35 38 40 41 42 42 41 42 45 46 45 43 41 39 37 36 34 31 30 29 28 28 26 25 23 22 20 19 18 17 17 17 17 16 16 16 16 16 17 16
38 38 38 38 39 39 39 39 39 39 40 41 41 40 37 36 35 34 36 38 38 42 44 42 43 47 47 48 48 48 49 49 46 44 41 38 37 36 34 34 34 34 35 35 34 35 38 40 40 41 41 41 41 44 47 46 44 42 40 39 37 35 33 31 31 30 30 29 27 26 24 22 20 19 19 18 18 18 18 18 18 17 18 18 17
39 40 40 40 40 41 41 41 41 41 41 40 41 41 38 36 34 32 35 38 37 38 41 40 40 45 47 47 50 51 51 49 47 45 43 40 39 39 39 38 36 37 38 37 36 35 37 40 41 41 41 41 41 43 46 47 46 44 42 41 39 37 35 33 32 32 32 31 30 28 26 24 22 21 20 20 19 20 20 20 20 20 19 19 19
41 41 42 42 43 43 43 43 42 41 41 40 40 39 38 37 34 33 36 39 37 35 39 41 41 44 47 46 46 49 52 51 49 48 46 43 42 41 42 42 39 39 39 40 39 37 36 38 40 41 41 41 41 42 45 46 46 45 43 42 41 38 37 35 34 34 33 33 31 30 28 27 25 23 22 22 21 21 21 22 21 21 21 20 20
46 46 45 44 44 45 45 44 43 41 40 39 39 38 37 36 35 35 36 37 36 35 39 42 41 41 43 44 43 43 49 52 49 48 48 46 44 42 42 43 41 39 40 42 41 38 36 35 38 41 41 41 41 42 43 46 46 46 45 44 42 41 39 37 36 35 34 34 33 32 31 29 27 26 25 24 24 23 23 23 23 23 23 22 21
49 49 47 46 44 43 43 43 43 42 40 38 37 37 36 35 35 35 35 36 36 36 38 41 42 41 40 40 40 39 42 47 47 46 47 46 45 42 41 42 43 41 41 43 43 40 36 34 36 40 42 42 42 42 43 45 46 47 46 45 44 42 41 40 38 37 36 35 35 34 32 31 30 28 27 26 26 25 24 25 24 24 24 24 23
47 48 47 45 44 42 41 40 40 41 40 38 36 36 35 34 33 34 35 36 37 36 37 39 40 41 40 38 37 36 38 43 45 46 46 45 44 42 40 42 44 43 43 44 44 41 37 34 36 40 43 43 43 42 42 44 45 47 47 46 45 43 42 41 40 39 38 36 36 35 34 33 32 31 30 29 28 28 27 27 27 27 26 26 26
45 44 44 43 42 41 40 39 39 39 39 39 37 35 35 34 33 33 34 36 37 37 37 38 38 38 38 38 37 37 37 38 41 43 45 46 45 42 40 41 44 45 45 44 44 41 38 36 37 39 43 44 44 43 43 43 45 46 47 47 45 43 42 42 42 40 39 38 37 37 36 35 34 33 32 31 31 31 30 30 29 29 29 28 28
42 41 41 41 40 39 39 39 39 38 39 39 38 36 35 35 33 33 33 34 36 38 37 38 38 38 38 38 38 40 39 37 38 39 42 46 46 42 40 41 44 46 46 45 43 40 38 38 39 39 42 45 45 45 44 43 44 45 46 46 44 43 42 42 42 41 41 40 39 38 37 36 35 35 34 33 33 33 33 32 31 31 31 30 30
40 39 39 38 38 38 39 39 40 39 39 39 38 37 36 36 35 35 35 34 35 37 38 38 39 40 40 39 39 40 41 40 40 39 40 42 44 43 41 42 45 45 46 47 44 41 40 39 39 39 41 44 46 46 44 43 43 44 46 45 44 42 42 41 42 42 42 42 41 40 39 38 37 36 36 35 35 35 35 34 33 33 33 32 32
38 38 37 36 37 39 40 40 40 40 40 39 39 38 38 37 36 37 38 37 36 37 37 39 41 42 41 41 40 39 41 43 42 40 40 41 41 44 45 45 46 45 45 47 46 43 42 40 40 40 41 43 45 45 44 42 42 43 44 44 43 42 41 42 42 42 43 43 43 42 40 39 38 38 37 37 37 37 36 36 36 35 35 34 33
37 36 35 35 38 40 41 41 41 40 40 39 39 39 38 38 38 38 39 40 40 39 38 39 42 43 42 42 42 41 41 42 43 42 42 43 44 46 49 48 48 46 45 47 47 45 44 41 40 41 41 42 43 44 43 42 43 43 43 43 42 42 42 42 42 43 43 43 42 42 41 40 39 38 38 37 38 38 38 37 37 37 36 35 35
36 35 34 35 38 39 40 41 41 39 38 37 37 37 37 38 39 39 40 41 42 43 41 41 43 44 44 44 44 45 42 41 45 45 44 46 47 49 51 49 48 48 45 45 46 46 46 44 42 42 42 42 42 41 41 42 43 44 44 43 43 43 43 43 44 43 43 43 42 41 41 40 39 39 38 38 39 39 39 39 38 38 37 36 35
35 34 34 36 38 39 40 41 41 39 37 36 36 36 36 37 39 40 41 41 42 44 44 43 44 45 46 45 44 45 44 43 46 48 46 46 48 49 50 50 49 49 47 45 45 46 48 49 46 43 43 42 41 39 39 40 41 42 43 44 44 45 44 44 44 44 44 43 43 42 41 40 39 39 40 40 41 41 41 40 39 38 37 36 35
36 36 37 38 39 39 39 40 41 40 39 37 36 36 36 37 38 40 41 41 42 43 45 44 45 46 47 48 46 46 47 45 45 49 48 47 49 49 49 49 49 49 49 47 47 47 48 50 50 47 45 44 41 38 38 39 39 40 41 44 45 46 45 44 44 44 45 44 43 42 41 41 40 40 41 41 41 41 40 39 38 37 36 35 34
36 37 38 40 40 38 38 40 41 40 39 37 36 36 35 35 36 37 39 40 40 41 43 44 46 47 48 49 49 47 49 48 46 48 50 49 49 50 49 49 50 50 50 49 48 48 48 50 52 51 48 46 43 39 38 38 38 38 39 40 43 44 45 45 44 44 44 44 43 42 41 41 41 40 40 40 39 38 37 36 36 35 34 33 32
37 37 39 40 40 38 38 40 41 39 38 37 37 36 36 35 35 35 35 36 37 39 41 43 45 47 47 49 49 48 49 50 46 46 49 50 50 50 50 50 50 50 51 50 48 48 48 49 51 53 51 49 45 41 39 38 37 36 36 38 40 42 43 45 45 44 43 42 41 41 40 39 39 38 37 36 35 34 34 34 34 33 32 31 30
37 38 39 40 40 38 38 40 41 40 38 37 37 36 35 34 34 34 33 33 34 36 38 40 43 45 46 47 48 48 48 48 46 45 48 50 50 50 50 50 50 51 51 51 49 48 47 48 49 52 53 51 47 43 40 38 36 34 35 38 40 40 41 42 43 43 42 41 39 38 37 37 36 36 35 34 33 32 32 32 32 31 31 30 30
38 39 40 40 39 38 38 40 41 40 38 37 36 34 32 32 32 32 33 33 34 35 36 37 40 43 43 44 46 47 47 47 47 46 47 49 49 50 50 50 50 51 52 52 51 49 47 47 48 51 54 53 49 45 41 38 35 33 34 36 37 37 38 39 40 40 39 38 36 35 35 34 34 33 32 32 31 31 31 31 30 31 31 30 30
38 39 40 40 39 39 40 40 41 40 38 37 36 34 32 31 30 30 32 34 35 35 35 35 36 39 40 41 43 44 45 47 47 46 46 47 49 49 49 50 50 51 52 52 52 51 48 47 48 51 54 54 51 47 43 39 36 33 33 34 36 36 36 37 38 38 37 36 35 34 33 32 31 30 30 30 30 30 30 30 30 30 31 31 31
39 39 40 41 41 41 41 40 40 39 37 37 36 34 31 30 30 31 30 31 33 33 33 33 32 34 37 38 40 41 42 44 44 44 44 45 47 48 48 49 49 49 51 51 52 52 50 48 48 50 53 55 53 50 47 43 38 34 33 34 35 35 36 37 38 38 37 36 34 33 32 31 29 29 28 28 29 29 29 29 30 30 30 31 31
39 41 42 42 42 42 41 40 40 38 37 36 36 35 32 31 32 32 29 28 30 30 29 30 29 30 33 34 36 38 39 41 41 42 42 43 46 47 47 47 47 47 49 51 51 52 51 48 48 49 51 54 54 52 49 45 40 36 35 35 35 36 37 37 37 37 37 35 33 31 30 29 28 29 29 29 29 29 29 30 30 30 30 31 31
40 41 43 43 44 43 40 38 38 37 36 35 35 35 34 33 33 32 28 24 26 27 27 28 29 29 30 31 32 34 36 38 39 40 41 43 45 46 46 46 45 45 48 50 50 50 50 48 47 48 50 52 54 53 50 47 43 40 39 37 35 36 38 37 36 36 35 34 32 30 30 29 29 30 30 30 30 30 29 29 30 31 31 31 31
40 41 43 44 44 42 39 36 36 36 35 35 35 35 35 35 34 33 28 23 23 25 26 27 29 29 29 30 30 32 33 35 37 39 41 43 44 45 45 45 46 48 48 48 49 49 48 47 46 47 49 50 52 53 51 48 46 44 42 39 37 38 39 37 36 35 34 33 31 30 30 30 30 30 30 30 30 29 28 28 29 30 30 31 32
41 42 43 44 43 40 37 33 33 34 34 35 35 35 35 34 33 32 29 23 20 22 25 27 29 29 29 30 31 32 33 34 34 36 39 42 44 45 45 45 46 48 48 48 48 48 47 46 46 46 47 48 50 53 52 50 49 47 43 40 39 39 39 37 36 35 35 34 32 31 31 30 30 30 30 30 30 29 28 27 28 28 29 31 32
42 43 43 43 41 37 34 31 30 32 33 34 35 35 34 33 31 30 27 24 21 20 22 25 29 30 30 31 32 34 34 34 34 34 37 41 44 45 46 46 46 47 48 48 48 48 47 45 44 44 45 45 47 51 53 52 51 49 46 42 40 39 39 38 37 37 36 34 32 31 30 30 30 31 31 31 31 29 28 28 28 27 28 30 32
43 42 42 41 38 34 31 29 29 30 31 32 33 34 33 31 29 27 26 25 23 21 20 22 25 29 31 31 33 34 35 35 35 35 36 39 42 44 46 47 46 47 47 47 47 47 46 44 42 41 42 43 45 49 52 53 53 51 47 44 41 40 39 39 38 37 35 33 32 30 29 30 32 32 32 31 30 29 29 29 28 28 28 29 30
43 41 40 38 35 32 30 29 29 29 29 30 32 33 32 29 27 26 24 24 25 23 20 20 22 25 29 32 34 34 35 36 36 36 37 38 39 42 44 45 45 46 47 46 45 46 44 42 40 40 41 42 43 47 52 54 54 51 48 46 44 42 40 39 37 35 33 33 33 32 30 31 33 33 33 33 31 30 30 30 30 29 28 29 30
42 39 38 36 33 31 28 28 29 29 29 29 31 32 31 29 27 25 23 22 24 24 21 20 20 21 24 30 34 35 35 35 36 37 37 38 39 41 42 43 44 45 45 44 44 44 44 42 40 40 42 43 44 47 52 55 55 52 50 49 46 43 40 38 35 33 33 34 35 34 32 32 32 34 35 35 34 33 32 32 31 30 29 28 30
39 37 35 34 32 29 27 27 27 28 29 29 30 32 31 29 27 25 23 21 21 22 21 20 20 21 22 25 31 34 35 35 36 37 37 38 39 41 42 43 44 45 43 42 43 43 42 42 41 41 43 45 46 48 52 56 57 55 52 49 46 42 40 39 37 34 34 35 36 36 35 33 33 35 36 36 36 35 34 34 33 31 29 29 29
36 34 32 32 30 28 26 25 26 27 28 28 29 31 31 29 27 26 24 21 19 21 22 20 19 20 20 21 24 28 31 33 35 36 37 38 39 41 43 44 44 43 42 41 42 42 42 42 41 42 44 46 47 49 52 55 58 57 53 48 44 44 43 42 40 38 37 37 37 37 37 36 35 37 38 37 37 36 36 35 35 33 31 30 29
34 31 30 29 28 27 25 24 24 25 26 27 28 29 30 29 28 26 24 21 20 21 22 19 19 19 19 19 20 21 25 29 32 34 36 37 39 40 42 44 43 42 40 41 42 42 42 42 41 42 44 46 47 48 50 53 56 57 54 49 46 45 45 44 42 41 40 40 38 39 40 38 37 38 38 38 38 37 37 36 36 34 32 31 30
Wind_Direction
284 288 290 292 291 290 288 284 281 278 275 272 271 269 270 270 268 267 271 280 291 297 288 263 246 241 239 240 239 238 238 237 233 231 233 236 235 233 231 226 221 221 222 222 223 223 221 218 215 217 215 210 212 220 227 230 233 240 241 235 229 232 239 240 236 227 215 205 188 172 155 131 107 87 68 63 63 61 58 54 51 50 48 44 42
281 284 287 287 286 285 285 284 280 277 275 272 270 266 265 265 266 266 267 269 276 287 292 276 252 242 240 240 238 237 238 237 235 233 233 235 236 235 234 232 228 224 224 224 225 225 224 223 221 220 220 218 217 219 224 229 230 232 234 235 232 233 246 255 256 252 241 228 215 200 186 163 117 87 69 62 62 62 58 55 55 55 52 48 44
283 286 291 291 287 281 280 283 282 278 274 271 270 267 263 262 263 263 264 264 265 273 282 280 261 244 240 240 239 238 237 237 236 235 234 235 235 234 234 234 232 229 226 226 227 227 227 226 225 225 224 223 223 222 223 228 231 230 230 233 233 233 239 253 262 266 262 252 241 232 224 226 233 31 45 53 57 61 60 57 59 59 55 51 48
283 284 287 289 286 277 270 273 279 279 274 270 268 267 264 262 260 259 259 260 260 259 265 273 269 252 242 240 240 240 238 237 237 237 236 235 236 235 233 233 233 232 230 228 228 228 229 228 227 228 228 226 226 225 224 226 229 231 230 230 233 235 236 243 254 263 268 265 261 258 257 263 274 304 350 27 40 54 62 61 63 62 57 53 50
278 280 282 285 284 271 258 259 268 273 273 267 264 264 265 264 261 258 256 256 256 255 253 260 267 262 250 242 240 240 239 238 238 239 239 237 237 236 234 233 233 233 232 231 229 229 229 229 229 230 230 229 227 227 227 226 228 230 230 230 231 234 237 239 243 252 260 266 268 269 272 279 286 297 316 354 19 35 57 63 67 64 58 54 51
280 282 285 289 292 276 254 251 257 262 264 261 258 259 262 264 263 261 258 256 255 254 251 251 257 262 259 251 243 239 239 239 239 240 241 241 240 238 235 233 234 234 233 232 231 230 230 230 230 230 231 231 229 228 227 226 227 228 229 230 230 232 236 237 240 244 249 258 265 268 272 280 289 295 301 324 1 13 39 58 65 65 59 54 51
283 284 285 288 291 281 261 255 257 260 261 259 256 255 259 262 263 262 260 259 256 253 250 248 250 255 259 258 249 240 237 238 239 239 240 241 241 240 236 234 234 235 234 233 232 231 230 230 230 230 231 231 230 229 227 226 225 227 227 228 229 229 232 234 237 239 244 250 254 260 265 271 282 289 294 302 330 354 11 38 54 61 58 54 50
278 279 283 285 287 282 270 265 264 266 268 267 264 261 260 261 262 261 260 259 258 254 251 247 246 248 252 256 253 245 239 238 238 238 238 239 239 239 237 235 234 235 236 235 233 232 230 230 230 230 230 231 231 229 228 227 225 225 225 226 226 227 229 233 235 235 239 244 247 251 255 259 265 271 278 284 297 322 341 2 29 46 52 50 47
273 275 281 282 286 283 274 269 266 270 275 275 273 270 267 264 262 260 258 257 256 255 253 249 246 245 247 250 252 249 244 241 239 238 237 237 237 237 237 236 234 234 236 236 236 234 231 230 230 229 229 230 230 229 227 226 226 225 224 224 225 226 227 230 233 234 234 238 243 245 249 251 254 259 265 271 280 289 302 320 346 16 35 42 41
278 282 286 283 282 279 275 273 269 272 277 277 276 274 271 267 262 259 256 254 254 253 252 251 248 247 246 246 248 249 247 245 242 240 239 238 238 238 237 236 235 234 234 236 237 236 233 231 230 229 229 229 230 229 227 225 225 225 224 224 225 226 226 227 230 232 233 235 239 242 246 249 251 256 261 267 273 277 282 290 297 317 348 16 25
285 293 294 287 286 285 285 284 277 275 275 275 275 273 272 267 260 258 255 252 251 251 251 250 248 248 247 244 246 247 248 247 245 244 242 242 242 241 239 237 236 235 235 236 237 237 235 233 231 230 229 229 229 229 228 226 224 224 224 224 224 226 227 227 229 232 234 235 237 240 243 246 250 253 256 260 263 269 274 278 284 291 300 318 339
287 293 295 294 295 296 295 292 288 285 281 278 275 272 272 267 260 261 260 256 254 251 251 250 246 247 248 246 246 248 249 249 248 247 246 246 245 243 242 240 238 237 236 236 237 237 237 235 233 231 229 229 230 229 229 227 225 223 223 223 223 224 226 227 229 231 234 235 236 238 240 243 248 251 254 256 257 261 265 270 275 282 287 294 300
292 292 297 300 300 299 298 296 293 291 288 286 281 276 274 266 260 261 261 260 258 253 251 249 246 247 249 248 246 247 249 249 248 248 247 248 248 246 244 242 241 240 238 236 236 236 238 238 236 233 231 230 230 229 228 228 227 225 223 222 221 221 224 226 228 231 232 235 236 237 239 241 245 250 254 256 257 259 261 264 268 272 276 280 284
303 300 302 304 302 300 300 299 296 294 292 289 285 281 275 267 262 260 257 258 258 255 254 251 247 247 250 248 246 246 248 247 246 245 245 247 249 249 248 248 246 244 242 238 236 235 236 237 237 235 233 231 230 230 228 228 228 228 225 224 222 221 222 224 227 231 232 234 235 236 238 240 243 248 253 256 258 259 261 262 264 266 268 270 272
308 308 308 307 303 300 301 301 299 297 295 291 286 282 275 269 269 266 260 260 259 255 253 252 249 248 250 248 245 245 245 245 244 243 243 245 248 250 250 251 251 248 246 243 239 236 234 234 234 234 233 232 231 231 230 228 228 229 228 227 226 224 223 224 226 230 232 234 235 235 237 240 243 247 252 257 259 262 264 265 265 266 266 266 267
310 310 310 309 305 301 300 300 299 297 295 293 289 285 280 273 272 271 265 258 256 253 251 250 250 250 249 248 245 244 243 244 243 242 242 244 246 248 250 252 253 251 250 249 243 238 235 233 232 232 232 232 231 232 231 230 228 228 229 228 228 227 227 227 228 230 232 234 236 237 239 241 243 247 251 256 260 263 266 268 270 270 269 269 268
310 308 307 305 302 300 298 296 295 294 294 294 293 291 287 280 274 272 267 258 254 252 251 250 252 252 249 245 243 242 241 242 243 243 244 245 245 246 249 252 254 254 254 254 249 242 237 234 233 232 232 231 230 230 231 231 230 229 229 229 229 230 230 230 231 232 233 236 238 240 242 243 244 246 249 253 257 262 265 268 270 272 272 271 270
301 300 299 298 297 296 297 297 295 294 294 295 296 295 292 288 280 274 270 266 261 256 254 252 251 253 250 244 242 239 237 240 243 245 247 248 247 246 248 251 254 255 255 256 253 246 239 234 233 232 232 231 229 229 229 230 230 230 229 229 230 230 231 232 233 235 236 237 238 240 242 243 245 246 249 252 255 259 263 266 269 271 273 273 272
297 296 296 296 297 296 297 299 299 297 296 296 296 295 294 293 289 282 276 272 267 260 259 257 250 249 249 245 242 239 236 239 242 242 243 247 248 247 247 251 254 254 253 254 253 248 242 236 233 232 232 231 229 227 228 229 230 229 229 229 230 231 232 233 235 237 238 239 239 240 241 243 245 247 249 252 254 257 260 263 267 270 273 274 274
302 301 300 301 301 300 298 299 299 298 297 296 295 293 292 291 290 289 284 279 271 262 262 261 250 245 245 243 241 240 238 239 242 241 239 240 245 246 246 248 251 252 252 252 252 249 246 241 235 233 233 232 229 227 227 228 228 229 229 230 230 231 232 234 236 238 239 240 240 240 240 242 245 248 250 252 254 256 258 260 263 267 271 274 275
305 303 302 302 302 302 301 300 299 298 296 294 292 290 289 287 286 288 285 281 274 265 263 261 250 243 243 244 243 241 241 239 240 243 240 236 239 243 243 244 246 250 251 251 251 250 247 244 239 234 233 233 230 227 226 227 228 228 229 230 231 232 233 234 236 238 240 241 242 242 242 242 244 248 251 254 255 257 258 259 261 263 266 269 273
304 303 301 301 301 301 302 301 299 298 295 293 290 288 286 284 282 280 276 273 271 266 263 261 253 245 244 247 246 242 242 240 238 240 239 235 236 239 240 240 240 244 248 249 251 251 249 247 242 236 234 233 232 228 225 226 227 228 228 229 231 233 234 235 236 238 239 241 243 244 244 244 245 247 251 254 256 258 259 259 260 261 263 266 269
306 304 302 301 300 300 300 300 299 297 295 292 289 287 284 281 278 272 268 269 270 269 264 260 256 250 248 250 248 243 241 239 238 239 236 234 235 237 237 238 236 237 243 247 249 251 250 248 244 239 235 234 233 229 226 225 226 227 228 229 230 232 235 236 237 238 239 240 243 244 245 246 247 248 251 253 256 258 259 260 260 262 263 264 266
309 307 304 302 301 300 300 299 299 296 294 292 289 286 283 280 275 269 265 265 265 264 261 257 254 251 252 251 248 244 238 236 238 238 235 234 236 236 236 238 238 235 238 242 245 249 251 249 245 240 235 233 233 231 227 226 226 227 228 230 230 232 234 236 237 238 239 240 242 244 246 248 249 250 251 253 255 257 260 261 262 263 263 264 265
309 307 306 305 304 303 301 300 299 297 294 292 289 287 284 281 277 271 265 261 258 256 256 258 255 252 253 251 247 244 236 233 236 237 235 236 237 236 236 239 241 238 237 239 242 246 249 250 247 240 234 232 232 231 229 226 226 226 228 230 231 232 233 235 236 238 239 240 241 244 246 249 251 251 253 255 256 259 261 263 264 265 265 266 266
307 306 305 305 305 305 304 301 299 297 295 292 289 286 283 281 279 275 268 260 256 254 252 256 256 254 254 254 250 247 240 235 236 238 239 238 237 238 239 240 242 241 239 239 240 242 246 249 248 242 235 232 231 231 230 228 226 227 228 230 231 233 233 234 236 238 240 241 242 244 246 249 251 253 254 256 258 260 261 263 265 266 266 267 267
306 305 304 304 304 304 304 302 299 296 294 292 289 285 281 279 277 275 271 263 257 253 251 250 251 250 250 252 252 250 246 241 240 241 241 238 236 237 239 241 243 243 241 240 238 239 242 245 246 243 237 234 232 230 230 229 227 228 229 230 232 234 234 235 236 238 240 242 243 245 247 249 251 254 256 257 259 260 262 263 264 266 266 267 267
307 305 304 304 304 304 304 303 301 297 294 291 288 285 281 278 275 273 272 268 262 258 255 252 249 247 245 246 249 248 246 244 241 241 241 238 235 235 238 242 244 243 242 241 238 237 238 241 243 242 239 235 233 231 230 229 228 229 231 232 233 235 236 236 237 239 240 242 244 246 248 250 252 254 256 258 259 260 261 262 263 265 266 267 267
308 306 306 306 306 307 307 305 302 299 295 292 289 285 282 278 274 273 271 269 266 261 258 254 249 247 245 244 245 246 246 245 242 240 240 238 235 234 237 241 242 241 241 241 239 236 235 238 240 239 238 236 234 233 232 231 230 230 231 233 234 236 237 238 238 239 241 242 244 246 248 251 253 256 258 259 260 261 261 262 263 265 266 266 266
309 307 307 308 310 311 310 308 305 301 297 293 290 287 283 279 274 271 269 267 265 262 260 256 250 249 247 244 244 245 245 245 243 239 238 237 235 234 234 236 237 237 238 239 239 237 234 235 236 236 236 235 234 234 234 234 233 232 233 233 234 235 236 237 238 239 240 242 244 247 249 252 255 257 258 260 261 262 262 263 264 265 266 266 266
309 308 308 310 312 312 311 311 308 305 301 297 293 289 285 281 276 272 269 267 265 263 262 257 252 250 248 245 245 245 244 245 244 239 237 235 235 235 234 233 234 234 235 236 237 236 235 234 232 234 236 236 235 235 235 236 236 236 236 236 236 236 236 237 237 238 240 241 244 246 249 252 254 256 258 260 262 262 262 263 264 265 264 264 265
309 307 308 310 312 313 314 314 311 309 306 302 298 294 289 285 280 274 270 267 265 263 261 257 253 251 247 244 245 245 243 245 245 241 238 236 234 234 234 233 233 233 234 236 235 233 235 235 231 232 235 237 237 237 236 237 238 238 238 238 237 237 236 237 237 238 239 241 243 245 248 251 254 256 259 261 263 263 263 264 264 263 262 261 262
309 306 306 308 311 313 315 315 313 310 307 304 300 297 294 290 284 278 273 269 266 263 260 257 254 252 247 243 244 244 241 242 245 242 239 238 236 234 233 232 232 234 236 237 234 230 232 235 233 230 233 237 239 238 237 237 238 239 238 237 237 237 237 237 238 238 239 241 243 245 247 251 254 257 260 263 264 264 264 264 262 260 259 259 260
310 306 305 307 310 312 314 315 313 309 306 303 300 297 295 291 285 280 275 271 267 262 258 255 252 251 248 244 243 243 239 240 244 242 239 239 239 236 234 232 231 233 235 237 235 230 230 234 235 233 233 237 239 238 237 236 237 238 238 237 237 238 238 238 238 238 239 241 243 245 248 251 255 258 261 263 263 262 261 260 258 257 257 257 257
310 307 306 308 309 309 311 314 314 311 307 304 301 298 296 293 288 281 277 273 269 263 257 253 250 248 246 243 243 243 239 238 241 241 239 239 239 238 236 233 231 231 234 235 234 231 229 232 236 236 235 237 239 238 237 237 236 236 237 237 238 237 237 237 237 238 239 240 243 246 249 252 255 257 258 259 258 257 256 256 255 255 255 254 254
311 309 309 309 308 308 309 313 315 313 308 305 304 301 298 298 294 287 280 275 270 265 258 253 249 247 244 241 241 242 240 237 238 239 240 239 238 238 236 234 232 231 232 234 233 232 230 230 234 237 237 237 238 238 237 237 237 236 236 237 237 237 237 237 237 238 239 241 243 246 249 251 252 252 252 252 251 251 252 254 255 255 254 252 252
312 311 311 310 309 308 308 311 314 315 311 307 308 306 302 300 297 291 283 276 271 267 263 257 250 246 242 239 238 240 239 238 237 239 239 239 237 237 236 235 233 231 232 233 233 232 231 230 232 236 238 237 236 236 237 238 239 237 235 236 237 236 235 236 236 237 239 240 242 244 246 247 247 247 247 247 248 250 251 252 253 254 253 253 253
312 312 312 311 309 308 309 310 313 316 314 310 310 310 306 302 299 292 283 277 272 269 266 261 253 246 241 237 236 237 237 236 236 237 239 238 236 236 236 235 234 232 232 233 234 233 232 231 232 235 237 237 235 235 236 238 239 238 236 236 236 234 233 234 234 235 236 237 239 241 243 243 243 244 245 247 249 249 249 250 251 251 252 252 252
311 312 312 311 309 308 310 312 314 316 316 313 312 313 310 306 303 298 289 280 274 270 266 261 255 247 239 235 234 235 235 234 235 237 238 238 237 235 235 235 234 234 233 233 234 234 233 232 233 235 237 238 236 234 235 237 238 238 237 237 236 233 232 232 233 234 235 235 236 239 240 241 242 244 246 248 250 249 248 248 249 250 250 250 250
310 310 311 310 309 309 311 314 315 317 317 314 313 313 310 305 304 306 300 285 276 273 266 257 251 246 240 236 234 234 234 234 235 236 237 238 237 235 235 235 235 235 235 233 233 234 233 233 235 235 237 238 237 235 234 236 237 236 235 236 235 232 231 231 232 234 235 235 235 237 239 242 244 246 248 250 251 250 249 249 249 250 249 249 249
310 310 310 309 308 310 313 315 315 317 317 315 313 311 306 300 300 307 307 290 278 274 265 252 245 244 241 239 236 235 234 233 233 235 236 237 237 236 235 234 233 234 235 233 233 233 233 234 235 236 237 238 238 237 235 235 235 234 232 233 232 231 230 230 232 234 235 235 235 236 239 242 244 247 249 250 251 250 250 251 251 251 251 250 250
312 311 310 309 308 309 313 315 315 316 316 314 312 310 306 299 297 304 310 297 281 275 264 248 241 241 242 242 240 238 236 235 233 233 235 237 237 236 235 232 230 232 233 232 231 232 233 234 235 235 236 237 238 237 235 234 234 232 230 230 231 232 232 231 231 233 235 236 235 235 237 240 242 244 246 247 248 248 249 250 252 252 252 252 251
314 312 311 309 308 309 312 314 315 315 316 314 312 310 308 302 298 302 307 302 287 279 268 251 242 241 243 244 243 239 238 238 237 235 235 236 236 234 233 231 229 231 232 230 229 231 232 233 234 234 234 235 236 236 234 232 232 231 229 228 230 232 233 232 230 231 234 236 236 235 236 237 238 241 243 245 246 247 248 250 252 254 254 253 252
315 314 312 310 308 309 310 313 315 314 315 314 312 312 312 309 304 302 303 302 294 284 272 258 248 244 243 244 242 239 237 238 239 237 236 236 235 233 231 230 229 230 229 227 228 230 232 233 234 234 234 233 234 234 233 231 231 230 227 227 229 232 233 232 230 229 232 235 236 235 236 236 237 238 240 243 246 247 249 252 255 256 256 255 252
316 315 313 310 308 308 309 311 314 314 314 314 313 315 318 316 311 306 302 302 300 291 277 265 255 248 245 244 243 241 239 238 238 237 236 236 235 234 232 232 231 230 228 227 227 229 231 232 234 235 235 234 233 232 231 230 230 229 227 226 229 232 233 233 232 230 231 234 236 236 236 236 236 237 238 242 246 249 251 255 257 257 256 254 253
316 314 313 310 308 307 309 310 312 314 314 314 314 316 320 320 318 314 308 304 305 299 285 272 260 251 247 245 244 243 243 242 240 239 237 236 235 235 234 233 232 231 229 229 229 231 232 232 233 235 236 235 233 231 230 228 228 227 226 226 229 232 233 234 233 232 232 235 238 238 236 235 236 237 239 243 247 252 255 257 257 257 255 254 253
315 313 312 310 307 307 310 310 311 313 315 315 315 316 320 323 324 324 317 308 308 307 295 277 264 253 246 244 244 245 245 244 241 239 238 237 236 235 234 233 233 232 231 231 232 233 235 234 234 235 236 235 233 230 229 228 228 227 226 227 230 232 232 234 235 235 234 236 239 240 237 236 237 238 240 243 247 252 257 258 258 257 257 255 254
313 311 310 309 308 308 310 310 310 312 315 317 317 318 323 327 328 329 325 314 311 314 306 285 268 257 248 244 243 245 245 243 241 238 237 237 236 235 233 233 233 232 232 233 234 235 236 236 235 233 233 232 231 229 228 227 228 228 227 227 230 232 233 233 234 235 235 236 238 240 239 238 239 241 242 244 247 252 257 259 259 257 258 259 258
311 310 310 309 307 307 308 309 309 311 314 317 318 319 323 328 330 331 330 322 316 319 317 297 272 261 254 247 244 245 243 240 238 238 237 236 236 235 233 232 233 233 233 233 235 237 238 238 236 234 232 230 228 227 226 226 226 227 227 227 231 235 235 234 233 234 235 236 238 240 241 240 241 243 245 246 249 253 257 259 258 257 259 263 264
308 309 310 308 306 305 305 307 307 308 311 314 317 319 323 328 331 332 332 327 320 322 323 307 281 267 260 252 249 249 245 239 235 235 236 238 237 237 236 234 234 235 235 236 237 238 239 239 237 234 232 229 227 226 225 225 225 226 226 228 232 237 238 237 236 236 236 237 238 240 242 242 242 245 247 249 251 253 256 257 256 256 260 266 269
307 308 308 306 303 302 302 304 304 304 306 310 314 318 321 326 331 333 333 328 320 322 326 312 282 268 265 259 255 255 251 244 239 236 236 238 238 238 238 238 237 237 237 238 238 239 240 240 237 235 232 228 226 226 225 224 225 226 227 228 233 237 239 240 240 238 238 238 239 241 242 243 244 246 249 252 253 252 253 255 254 255 260 266 271
Height
5920 5920 5920 5920 5920 5919 5919 5919 5919 5918 5918 5919 5919 5920 5920 5919 5919 5919 5919 5918 5918 5918 5917 5918 5919 5920 5921 5921 5921 5921 5921 5923 5924 5925 5926 5927 5929 5930 5930 5930 5931 5931 5932 5933 5933 5934 5934 5935 5935 5936 5936 5937 5937 5938 5938 5939 5939 5939 5940 5940 5940 5940 5940 5941 5941 5940 5940 5940 5940 5940 5940 5940 5939 5939 5939 5939 5938 5938 5937 5937 5936 5936 5935 5935 5934
5918 5918 5918 5918 5918 5917 5917 5917 5917 5917 5917 5916 5917 5918 5919 5918 5917 5917 5917 5917 5917 5916 5916 5916 5916 5917 5918 5919 5919 5919 5919 5921 5922 5923 5924 5925 5926 5928 5928 5929 5929 5930 5930 5931 5932 5933 5933 5934 5934 5935 5935 5936 5936 5937 5937 5938 5938 5938 5939 5939 5939 5939 5940 5940 5940 5940 5940 5940 5940 5940 5940 5940 5939 5939 5939 5939 5939 5938 5937 5937 5936 5936 5936 5935 5935
5915 5915 5915 5915 5915 5915 5915 5915 5915 5915 5915 5914 5914 5915 5916 5916 5916 5915 5915 5915 5915 5915 5914 5914 5914 5915 5916 5916 5916 5917 5917 5918 5920 5921 5922 5923 5924 5925 5926 5927 5927 5928 5928 5929 5930 5931 5932 5932 5933 5934 5934 5935 5935 5936 5936 5936 5937 5937 5938 5938 5938 5938 5939 5939 5940 5940 5940 5940 5940 5940 5940 5940 5940 5939 5939 5939 5939 5938 5938 5937 5937 5936 5936 5936 5935
5914 5913 5912 5912 5911 5911 5911 5911 5911 5911 5911 5911 5911 5911 5912 5913 5913 5913 5913 5913 5913 5913 5913 5912 5912 5912 5913 5913 5914 5914 5915 5916 5917 5918 5920 5921 5922 5923 5923 5924 5925 5925 5926 5927 5928 5929 5930 5931 5931 5933 5933 5934 5934 5935 5935 5935 5936 5936 5936 5937 5937 5937 5938 5938 5939 5939 5939 5940 5939 5939 5940 5940 5940 5939 5939 5939 5939 5938 5938 5937 5937 5936 5936 5936 5936
5912 5911 5910 5909 5908 5908 5907 5908 5908 5908 5908 5908 5908 5908 5908 5909 5909 5909 5910 5910 5910 5910 5910 5910 5910 5910 5910 5910 5911 5911 5912 5913 5914 5916 5917 5919 5920 5920 5921 5921 5922 5923 5924 5924 5925 5926 5927 5929 5930 5931 5932 5932 5933 5933 5934 5934 5935 5935 5935 5936 5936 5937 5937 5937 5938 5938 5939 5939 5939 5939 5939 5940 5940 5940 5939 5939 5939 5938 5938 5937 5937 5937 5936 5936 5936
5910 5908 5907 5907 5906 5906 5905 5905 5904 5905 5905 5905 5905 5904 5904 5904 5905 5905 5905 5906 5906 5906 5907 5907 5907 5907 5907 5907 5908 5908 5909 5910 5911 5913 5914 5916 5917 5918 5918 5919 5919 5920 5921 5922 5923 5924 5925 5926 5927 5929 5930 5931 5932 5932 5933 5933 5933 5934 5934 5935 5935 5935 5936 5936 5936 5937 5937 5938 5938 5938 5939 5939 5939 5939 5939 5939 5939 5938 5938 5938 5937 5937 5937 5936 5936
5907 5906 5905 5904 5904 5903 5903 5903 5903 5903 5903 5903 5902 5901 5900 5900 5900 5901 5901 5902 5902 5902 5902 5903 5904 5905 5905 5905 5905 5906 5906 5907 5908 5909 5911 5912 5914 5915 5915 5916 5917 5917 5918 5919 5920 5921 5922 5923 5925 5926 5928 5929 5930 5931 5931 5931 5932 5932 5933 5933 5934 5934 5935 5935 5935 5936 5936 5937 5937 5937 5938 5938 5938 5939 5939 5939 5938 5938 5938 5938 5937 5937 5937 5937 5936
5902 5901 5902 5902 5900 5900 5900 5901 5902 5902 5902 5901 5900 5899 5897 5896 5896 5897 5898 5898 5898 5898 5899 5899 5901 5901 5902 5903 5904 5903 5904 5904 5905 5906 5907 5908 5910 5911 5912 5913 5914 5915 5916 5917 5917 5918 5919 5921 5922 5923 5925 5926 5928 5929 5929 5930 5930 5930 5931 5932 5932 5933 5933 5934 5934 5934 5935 5935 5936 5936 5936 5937 5937 5938 5938 5938 5938 5938 5938 5938 5938 5937 5937 5937 5937
5897 5897 5899 5899 5897 5896 5897 5898 5899 5899 5899 5899 5898 5897 5895 5895 5894 5893 5893 5894 5895 5895 5896 5896 5897 5898 5899 5900 5901 5901 5901 5902 5902 5903 5904 5904 5905 5906 5908 5909 5910 5912 5913 5914 5914 5915 5916 5917 5919 5920 5922 5923 5925 5926 5927 5928 5928 5929 5929 5930 5931 5931 5932 5932 5932 5933 5933 5934 5934 5935 5935 5936 5936 5937 5937 5937 5938 5938 5938 5938 5937 5937 5937 5937 5937
5894 5896 5898 5896 5894 5894 5895 5895 5895 5895 5895 5894 5894 5894 5893 5893 5891 5889 5889 5890 5890 5891 5892 5893 5893 5894 5896 5897 5898 5899 5899 5899 5900 5900 5900 5901 5901 5903 5904 5905 5907 5908 5909 5910 5911 5912 5913 5914 5915 5917 5919 5920 5922 5923 5925 5925 5926 5927 5927 5928 5929 5929 5930 5930 5931 5931 5932 5932 5933 5933 5934 5934 5935 5935 5936 5936 5937 5937 5937 5937 5937 5937 5937 5937 5937
5893 5895 5895 5893 5892 5892 5892 5891 5891 5891 5890 5890 5889 5890 5890 5889 5887 5886 5886 5886 5886 5887 5888 5889 5890 5890 5891 5893 5894 5895 5896 5897 5897 5897 5897 5898 5898 5899 5901 5902 5903 5904 5906 5907 5908 5909 5910 5911 5912 5914 5916 5917 5919 5920 5922 5923 5924 5925 5925 5926 5927 5928 5928 5929 5929 5930 5930 5930 5931 5932 5932 5933 5934 5934 5935 5935 5936 5936 5937 5937 5937 5937 5937 5937 5937
5892 5893 5891 5889 5889 5890 5888 5887 5887 5887 5886 5885 5885 5885 5886 5886 5884 5883 5883 5882 5882 5883 5884 5884 5886 5887 5887 5889 5890 5892 5893 5893 5894 5894 5894 5895 5895 5896 5898 5899 5900 5901 5902 5904 5905 5906 5907 5908 5909 5911 5912 5914 5916 5917 5919 5920 5921 5922 5923 5923 5924 5925 5926 5927 5928 5928 5928 5929 5929 5930 5931 5931 5932 5933 5933 5934 5935 5935 5936 5936 5936 5936 5936 5936 5936
5889 5889 5888 5886 5885 5886 5885 5883 5882 5883 5883 5881 5881 5881 5881 5881 5880 5880 5880 5879 5879 5879 5879 5879 5881 5883 5884 5885 5887 5888 5889 5890 5890 5891 5891 5891 5892 5893 5894 5895 5897 5898 5899 5900 5901 5903 5904 5905 5906 5907 5909 5911 5912 5914 5916 5918 5919 5920 5920 5921 5922 5922 5923 5924 5925 5926 5927 5927 5928 5928 5929 5930 5930 5931 5932 5933 5933 5934 5934 5935 5935 5935 5935 5935 5935
5885 5886 5885 5884 5882 5881 5881 5879 5878 5878 5878 5878 5877 5877 5877 5875 5875 5875 5875 5876 5875 5876 5875 5875 5876 5879 5879 5880 5883 5884 5885 5886 5887 5888 5888 5888 5889 5890 5891 5892 5892 5893 5894 5896 5897 5899 5900 5901 5903 5904 5905 5907 5909 5911 5913 5914 5916 5917 5918 5919 5919 5920 5921 5922 5923 5924 5925 5925 5926 5927 5928 5928 5929 5930 5931 5931 5932 5933 5933 5934 5934 5934 5934 5934 5934
5879 5880 5880 5880 5880 5878 5878 5877 5875 5874 5874 5873 5872 5873 5872 5871 5869 5870 5870 5871 5871 5871 5872 5872 5873 5874 5874 5876 5878 5879 5881 5883 5884 5884 5883 5883 5885 5886 5887 5888 5888 5888 5890 5892 5893 5894 5895 5897 5898 5900 5902 5903 5905 5907 5909 5911 5913 5914 5916 5917 5917 5918 5919 5919 5920 5922 5923 5924 5924 5925 5926 5927 5928 5928 5929 5930 5931 5931 5932 5932 5933 5933 5933 5933 5933
5874 5874 5875 5876 5875 5875 5875 5875 5873 5871 5870 5869 5868 5868 5867 5867 5865 5864 5865 5866 5867 5867 5867 5868 5869 5869 5870 5872 5874 5874 5877 5879 5879 5879 5878 5879 5881 5882 5883 5883 5883 5884 5886 5888 5889 5890 5891 5892 5893 5895 5897 5899 5902 5904 5906 5908 5909 5911 5913 5914 5915 5916 5917 5917 5918 5919 5921 5922 5923 5924 5924 5925 5926 5927 5928 5928 5929 5930 5930 5931 5931 5931 5932 5932 5932
5873 5872 5872 5873 5872 5871 5871 5872 5870 5868 5867 5866 5865 5863 5863 5862 5860 5859 5859 5860 5861 5861 5862 5863 5864 5864 5865 5867 5869 5870 5873 5874 5873 5874 5874 5876 5877 5877 5878 5879 5880 5881 5882 5883 5885 5886 5886 5887 5889 5891 5892 5894 5897 5900 5902 5905 5906 5908 5909 5911 5912 5913 5914 5915 5916 5917 5918 5920 5921 5922 5923 5923 5924 5925 5926 5927 5927 5928 5929 5929 5929 5930 5930 5930 5930
5872 5871 5870 5870 5869 5867 5866 5866 5865 5863 5862 5861 5860 5859 5858 5856 5854 5854 5854 5854 5855 5856 5857 5858 5859 5858 5859 5862 5864 5866 5868 5869 5869 5871 5871 5872 5873 5874 5874 5875 5876 5877 5877 5878 5880 5881 5882 5883 5885 5886 5888 5890 5892 5895 5898 5901 5903 5905 5906 5908 5909 5910 5912 5913 5914 5915 5916 5918 5919 5920 5921 5921 5922 5923 5924 5925 5925 5926 5927 5928 5928 5928 5928 5929 5929
5869 5867 5865 5864 5863 5861 5860 5859 5858 5857 5856 5855 5855 5853 5852 5851 5849 5849 5849 5849 5850 5850 5852 5852 5853 5853 5854 5857 5859 5861 5863 5865 5865 5866 5866 5867 5869 5870 5870 5871 5872 5873 5873 5874 5875 5876 5878 5879 5880 5881 5883 5885 5887 5890 5894 5897 5899 5901 5903 5904 5906 5907 5909 5910 5912 5913 5914 5915 5917 5918 5919 5919 5920 5921 5921 5922 5923 5924 5925 5926 5926 5927 5927 5927 5928
5863 5861 5859 5858 5857 5855 5854 5853 5852 5851 5849 5848 5848 5847 5847 5846 5845 5845 5844 5844 5844 5845 5846 5846 5846 5848 5849 5850 5853 5855 5858 5861 5861 5861 5861 5862 5864 5866 5866 5866 5867 5869 5869 5869 5870 5872 5873 5875 5876 5877 5879 5880 5883 5886 5889 5892 5895 5898 5900 5901 5902 5904 5906 5907 5909 5910 5911 5913 5914 5915 5916 5917 5918 5919 5919 5920 5921 5922 5923 5924 5924 5925 5925 5926 5926
5859 5857 5855 5853 5851 5850 5849 5848 5847 5845 5843 5842 5841 5841 5841 5841 5841 5841 5839 5837 5838 5839 5839 5840 5840 5842 5843 5844 5846 5849 5851 5854 5856 5857 5857 5858 5858 5860 5861 5861 5863 5865 5865 5865 5866 5868 5869 5870 5872 5873 5875 5877 5878 5881 5884 5887 5891 5894 5896 5898 5899 5901 5903 5904 5906 5907 5909 5910 5911 5912 5914 5915 5916 5916 5917 5918 5919 5919 5920 5921 5922 5923 5923 5924 5924
5855 5853 5851 5849 5847 5845 5844 5843 5841 5840 5839 5837 5835 5835 5835 5835 5836 5836 5833 5831 5832 5833 5834 5835 5835 5836 5837 5838 5839 5843 5845 5848 5851 5852 5853 5852 5853 5854 5855 5856 5858 5860 5860 5861 5861 5863 5865 5867 5868 5870 5872 5873 5874 5876 5879 5883 5886 5890 5892 5894 5896 5898 5899 5901 5903 5904 5906 5907 5908 5910 5911 5912 5913 5914 5915 5916 5916 5917 5918 5918 5919 5920 5921 5922 5922
5851 5849 5847 5845 5843 5841 5839 5838 5836 5835 5833 5832 5831 5830 5829 5830 5830 5830 5828 5826 5828 5828 5828 5829 5830 5831 5832 5833 5834 5836 5838 5842 5845 5846 5847 5848 5848 5849 5849 5850 5852 5855 5856 5857 5857 5858 5861 5863 5865 5866 5868 5870 5871 5872 5874 5878 5881 5885 5887 5889 5892 5894 5896 5898 5899 5901 5903 5904 5906 5907 5908 5909 5911 5911 5912 5913 5914 5914 5915 5916 5916 5917 5918 5919 5920
5844 5842 5841 5840 5838 5835 5834 5832 5830 5829 5828 5826 5825 5824 5824 5825 5825 5824 5822 5822 5823 5824 5822 5822 5824 5826 5827 5828 5829 5830 5832 5835 5838 5840 5841 5843 5843 5844 5845 5845 5847 5850 5851 5852 5852 5854 5856 5859 5861 5862 5864 5865 5867 5869 5871 5873 5876 5880 5882 5885 5887 5890 5892 5894 5896 5898 5899 5901 5902 5904 5905 5906 5908 5909 5909 5910 5911 5912 5912 5913 5914 5914 5915 5916 5917
5839 5836 5834 5833 5832 5830 5828 5826 5824 5822 5821 5820 5819 5818 5818 5818 5819 5818 5817 5816 5816 5817 5817 5817 5818 5821 5822 5823 5824 5825 5827 5829 5832 5834 5836 5837 5837 5840 5842 5840 5841 5845 5846 5847 5848 5850 5852 5854 5856 5858 5859 5861 5863 5865 5867 5869 5872 5875 5877 5880 5883 5885 5888 5890 5892 5894 5896 5898 5899 5900 5902 5903 5904 5905 5906 5907 5908 5909 5910 5910 5911 5912 5912 5914 5915
5837 5834 5830 5828 5826 5824 5822 5821 5819 5816 5814 5813 5812 5811 5811 5811 5812 5812 5811 5810 5810 5810 5812 5812 5812 5815 5817 5817 5818 5819 5821 5823 5825 5828 5830 5831 5833 5835 5837 5837 5837 5839 5841 5842 5844 5846 5848 5850 5852 5853 5855 5857 5858 5860 5863 5865 5867 5870 5872 5875 5878 5881 5884 5886 5888 5890 5892 5894 5896 5897 5898 5899 5901 5902 5903 5904 5905 5906 5907 5907 5908 5909 5910 5911 5912
5833 5830 5827 5824 5822 5819 5816 5815 5813 5811 5808 5807 5806 5805 5804 5804 5805 5805 5804 5803 5803 5804 5805 5805 5806 5808 5810 5811 5812 5813 5816 5818 5819 5822 5824 5825 5827 5830 5832 5833 5834 5835 5836 5838 5839 5843 5845 5846 5847 5849 5851 5853 5854 5856 5858 5860 5863 5866 5868 5871 5874 5877 5880 5882 5884 5886 5888 5890 5892 5893 5894 5896 5897 5898 5900 5901 5902 5903 5904 5904 5905 5906 5906 5907 5908
5828 5825 5823 5820 5817 5814 5812 5809 5807 5805 5803 5801 5800 5799 5798 5798 5798 5798 5798 5797 5797 5797 5798 5799 5800 5801 5802 5803 5805 5808 5811 5812 5813 5815 5817 5818 5822 5825 5827 5828 5829 5830 5832 5833 5836 5839 5841 5841 5843 5845 5847 5848 5850 5851 5853 5856 5859 5862 5864 5867 5871 5873 5876 5878 5880 5882 5884 5886 5887 5889 5890 5892 5893 5894 5896 5897 5898 5899 5900 5901 5902 5902 5903 5904 5905
5823 5820 5818 5815 5812 5809 5807 5804 5802 5800 5798 5796 5794 5793 5792 5792 5792 5792 5791 5791 5791 5791 5792 5793 5794 5794 5795 5795 5798 5801 5804 5805 5807 5809 5810 5812 5816 5819 5820 5822 5824 5825 5827 5829 5832 5835 5836 5837 5839 5841 5842 5843 5845 5847 5849 5852 5855 5857 5860 5863 5866 5869 5871 5873 5875 5877 5879 5881 5883 5885 5886 5888 5889 5890 5892 5893 5894 5896 5896 5897 5898 5899 5899 5900 5901
5818 5815 5813 5810 5807 5804 5801 5799 5797 5794 5792 5791 5789 5788 5787 5786 5786 5786 5785 5784 5785 5785 5785 5786 5787 5787 5788 5788 5790 5793 5797 5798 5801 5803 5804 5806 5809 5811 5812 5814 5816 5819 5822 5824 5827 5830 5831 5833 5835 5836 5837 5839 5841 5843 5845 5848 5850 5852 5855 5859 5862 5864 5866 5868 5870 5872 5874 5876 5878 5880 5882 5884 5885 5886 5888 5889 5890 5892 5893 5893 5894 5895 5895 5896 5897
5814 5811 5809 5806 5803 5800 5797 5794 5791 5789 5787 5785 5783 5782 5781 5780 5780 5780 5779 5778 5778 5778 5778 5779 5779 5780 5781 5782 5783 5786 5789 5791 5794 5797 5798 5800 5803 5805 5806 5808 5811 5814 5816 5817 5821 5825 5827 5828 5830 5832 5833 5834 5836 5839 5842 5844 5846 5848 5851 5854 5857 5859 5861 5863 5865 5867 5869 5871 5873 5875 5877 5879 5881 5882 5883 5885 5886 5888 5889 5889 5890 5891 5892 5892 5893
5809 5807 5805 5802 5799 5795 5792 5789 5787 5784 5781 5779 5777 5775 5774 5773 5772 5772 5772 5771 5771 5771 5771 5771 5772 5772 5774 5776 5777 5779 5782 5785 5787 5789 5791 5794 5797 5798 5800 5803 5805 5809 5811 5811 5816 5821 5822 5823 5826 5827 5828 5830 5832 5835 5838 5840 5841 5844 5846 5849 5851 5853 5855 5857 5859 5861 5864 5866 5868 5870 5872 5874 5876 5877 5879 5880 5881 5883 5884 5885 5886 5886 5887 5888 5889
5805 5803 5800 5798 5795 5792 5788 5785 5782 5779 5777 5774 5772 5770 5768 5766 5765 5764 5764 5764 5763 5763 5763 5764 5765 5765 5767 5769 5770 5772 5775 5778 5780 5782 5784 5786 5789 5792 5794 5797 5800 5803 5805 5807 5811 5816 5817 5817 5820 5822 5824 5825 5827 5831 5833 5834 5836 5838 5841 5844 5846 5848 5849 5852 5854 5856 5859 5861 5863 5865 5867 5869 5871 5872 5874 5875 5876 5878 5879 5880 5881 5882 5883 5884 5884
5801 5799 5796 5793 5790 5788 5785 5781 5778 5775 5772 5770 5767 5765 5763 5760 5758 5757 5756 5755 5755 5755 5755 5757 5758 5758 5759 5761 5763 5765 5769 5771 5772 5774 5777 5779 5781 5784 5787 5790 5794 5797 5800 5802 5806 5810 5812 5813 5814 5817 5818 5820 5823 5826 5828 5829 5831 5833 5835 5837 5840 5842 5844 5847 5849 5851 5853 5856 5858 5860 5862 5864 5866 5867 5869 5870 5871 5872 5874 5875 5876 5877 5878 5879 5880
5796 5794 5792 5789 5786 5783 5780 5777 5774 5771 5768 5765 5762 5759 5757 5755 5752 5750 5749 5748 5747 5747 5748 5749 5750 5751 5752 5754 5756 5759 5761 5764 5766 5768 5770 5772 5774 5777 5780 5784 5787 5791 5794 5796 5800 5804 5807 5809 5808 5810 5813 5815 5818 5821 5823 5824 5826 5828 5830 5832 5835 5837 5840 5842 5844 5846 5848 5851 5853 5855 5858 5859 5861 5862 5864 5865 5866 5867 5869 5870 5871 5873 5874 5875 5875
5792 5790 5787 5784 5781 5778 5776 5773 5770 5766 5763 5760 5757 5754 5751 5748 5746 5744 5742 5741 5740 5740 5740 5741 5742 5743 5745 5747 5749 5751 5754 5757 5760 5762 5764 5766 5768 5770 5774 5777 5781 5785 5788 5791 5794 5798 5801 5803 5804 5805 5808 5810 5813 5816 5818 5819 5821 5824 5826 5829 5830 5833 5835 5837 5839 5841 5843 5846 5849 5851 5853 5854 5856 5857 5858 5860 5861 5862 5864 5865 5867 5868 5869 5870 5871
5788 5786 5783 5780 5776 5774 5771 5768 5765 5762 5759 5755 5752 5748 5745 5742 5740 5738 5737 5735 5734 5733 5733 5734 5735 5736 5738 5740 5743 5744 5747 5750 5753 5756 5757 5759 5762 5764 5767 5771 5774 5778 5781 5785 5789 5792 5795 5798 5800 5800 5802 5804 5807 5811 5813 5815 5817 5820 5822 5824 5826 5828 5830 5832 5835 5837 5839 5841 5844 5846 5847 5849 5851 5852 5854 5855 5856 5858 5859 5861 5862 5864 5865 5866 5867
5784 5782 5779 5775 5772 5769 5766 5764 5761 5757 5754 5750 5747 5743 5740 5738 5735 5733 5732 5730 5729 5728 5727 5727 5729 5730 5732 5734 5736 5738 5741 5744 5746 5748 5750 5753 5755 5758 5762 5765 5768 5771 5775 5778 5782 5786 5789 5792 5795 5795 5796 5798 5802 5806 5809 5811 5814 5816 5818 5820 5822 5823 5826 5828 5830 5832 5834 5836 5838 5840 5842 5844 5846 5848 5850 5851 5852 5854 5855 5856 5858 5859 5860 5861 5862
5781 5778 5775 5771 5768 5765 5762 5759 5756 5753 5750 5745 5742 5739 5736 5733 5731 5729 5727 5725 5723 5722 5722 5722 5723 5725 5726 5728 5730 5732 5735 5737 5740 5742 5745 5747 5749 5752 5756 5759 5762 5765 5768 5772 5776 5779 5783 5787 5789 5790 5791 5793 5797 5801 5804 5807 5809 5812 5815 5817 5819 5820 5822 5824 5826 5827 5829 5831 5833 5836 5838 5839 5842 5844 5845 5847 5848 5849 5851 5852 5853 5854 5855 5856 5857
5777 5774 5771 5767 5764 5760 5757 5754 5751 5748 5745 5741 5738 5735 5733 5730 5727 5725 5722 5720 5718 5717 5717 5717 5718 5720 5722 5723 5725 5727 5729 5732 5734 5736 5739 5741 5743 5747 5750 5753 5756 5759 5762 5766 5769 5773 5777 5781 5783 5785 5787 5788 5791 5795 5799 5801 5805 5809 5812 5814 5815 5816 5817 5819 5820 5822 5824 5826 5829 5831 5833 5835 5837 5839 5841 5842 5844 5845 5846 5848 5849 5850 5850 5851 5852
5774 5770 5767 5763 5760 5756 5753 5750 5747 5744 5741 5738 5734 5731 5729 5727 5724 5721 5718 5715 5714 5713 5713 5713 5714 5716 5717 5719 5720 5722 5724 5726 5729 5731 5733 5735 5738 5741 5744 5747 5749 5753 5756 5760 5764 5767 5771 5775 5778 5780 5782 5784 5786 5790 5794 5797 5802 5805 5807 5809 5810 5812 5812 5813 5815 5817 5819 5822 5824 5826 5828 5830 5833 5835 5836 5838 5839 5840 5842 5843 5844 5845 5846 5847 5848
5770 5766 5763 5759 5755 5752 5749 5746 5743 5740 5737 5734 5730 5727 5725 5723 5720 5718 5715 5712 5710 5710 5709 5709 5710 5711 5713 5714 5716 5718 5720 5721 5723 5726 5727 5729 5732 5735 5738 5741 5744 5747 5750 5754 5758 5761 5765 5769 5772 5774 5776 5779 5781 5785 5789 5793 5797 5799 5801 5803 5806 5807 5807 5809 5811 5813 5815 5817 5820 5822 5824 5826 5828 5830 5832 5834 5835 5836 5838 5839 5840 5841 5842 5843 5843
5765 5762 5758 5754 5750 5747 5745 5742 5739 5736 5733 5730 5726 5724 5721 5719 5716 5714 5712 5710 5708 5707 5706 5706 5707 5708 5709 5710 5712 5713 5715 5717 5718 5720 5722 5724 5726 5729 5732 5735 5738 5741 5744 5748 5752 5756 5760 5763 5766 5768 5770 5773 5776 5779 5783 5787 5790 5793 5796 5799 5801 5802 5803 5804 5807 5809 5811 5813 5816 5818 5820 5821 5824 5826 5828 5830 5831 5832 5834 5835 5836 5837 5838 5839 5839
5760 5757 5753 5749 5745 5743 5741 5739 5736 5732 5729 5726 5723 5720 5718 5715 5713 5710 5708 5707 5705 5703 5702 5703 5703 5704 5705 5706 5707 5709 5710 5711 5713 5715 5717 5719 5721 5723 5726 5729 5732 5735 5739 5742 5746 5750 5753 5757 5760 5762 5764 5768 5770 5773 5777 5781 5784 5787 5791 5793 5796 5797 5799 5801 5803 5805 5806 5808 5811 5814 5816 5818 5820 5822 5824 5826 5827 5828 5830 5831 5832 5833 5834 5834 5835
5755 5751 5748 5744 5741 5738 5737 5735 5732 5729 5725 5722 5719 5716 5714 5712 5710 5707 5705 5703 5701 5700 5699 5699 5699 5700 5701 5702 5703 5704 5705 5707 5709 5711 5712 5714 5715 5718 5721 5724 5726 5730 5734 5737 5740 5744 5747 5750 5754 5756 5759 5762 5765 5767 5771 5774 5777 5781 5785 5788 5791 5793 5795 5797 5799 5800 5802 5804 5806 5810 5813 5815 5817 5818 5820 5821 5823 5825 5826 5827 5828 5829 5830 5830 5830
5749 5746 5743 5739 5736 5734 5732 5731 5729 5726 5723 5719 5716 5714 5712 5710 5707 5704 5701 5699 5698 5696 5696 5695 5695 5696 5697 5698 5699 5700 5701 5703 5705 5707 5708 5709 5711 5713 5716 5719 5722 5725 5729 5732 5736 5739 5742 5745 5749 5752 5754 5757 5760 5763 5765 5768 5770 5774 5779 5783 5786 5788 5790 5792 5794 5796 5798 5801 5803 5806 5809 5811 5812 5813 5815 5817 5819 5821 5822 5823 5823 5824 5825 5826 5826
5744 5740 5737 5735 5732 5730 5729 5727 5725 5723 5720 5717 5713 5711 5709 5707 5704 5701 5698 5696 5694 5693 5692 5692 5692 5692 5693 5694 5695 5696 5697 5698 5700 5702 5703 5705 5706 5708 5711 5715 5718 5721 5724 5727 5731 5734 5737 5741 5744 5747 5750 5751 5754 5757 5760 5762 5764 5769 5774 5778 5780 5782 5785 5788 5790 5793 5796 5798 5799 5801 5805 5807 5808 5809 5811 5813 5815 5816 5817 5818 5819 5820 5821 5822 5822
5739 5735 5732 5730 5729 5727 5725 5724 5721 5719 5717 5714 5710 5708 5706 5704 5701 5698 5696 5693 5691 5690 5689 5688 5688 5689 5689 5690 5691 5692 5693 5694 5695 5696 5698 5700 5702 5704 5706 5710 5713 5715 5719 5723 5726 5728 5732 5735 5738 5741 5743 5745 5748 5751 5753 5756 5759 5763 5767 5770 5773 5777 5781 5784 5788 5790 5792 5794 5795 5797 5800 5802 5804 5805 5806 5808 5810 5812 5813 5815 5815 5816 5817 5817 5818
5734 5731 5728 5726 5725 5723 5722 5720 5718 5716 5713 5711 5708 5705 5703 5701 5699 5696 5693 5691 5690 5688 5686 5685 5685 5685 5685 5686 5687 5687 5688 5689 5689 5691 5693 5695 5697 5699 5701 5704 5707 5710 5714 5718 5720 5722 5726 5729 5732 5735 5737 5739 5742 5744 5747 5750 5754 5757 5760 5764 5769 5773 5777 5780 5783 5786 5788 5789 5790 5792 5795 5798 5800 5800 5801 5803 5806 5808 5809 5811 5811 5812 5812 5813 5813
5729 5727 5724 5722 5721 5720 5719 5717 5715 5713 5711 5708 5705 5703 5701 5699 5697 5694 5691 5689 5687 5685 5684 5682 5681 5681 5681 5682 5682 5682 5683 5683 5683 5685 5687 5689 5691 5693 5696 5698 5701 5705 5709 5713 5715 5717 5720 5723 5726 5729 5731 5733 5736 5738 5741 5744 5748 5751 5755 5761 5765 5768 5771 5775 5778 5781 5782 5784 5786 5788 5790 5794 5795 5795 5796 5799 5801 5803 5805 5806 5807 5808 5808 5809 5809
5725 5723 5721 5719 5718 5716 5715 5714 5712 5710 5708 5705 5703 5700 5698 5696 5694 5692 5689 5686 5684 5682 5681 5679 5677 5677 5677 5677 5678 5677 5677 5677 5678 5680 5682 5683 5685 5687 5690 5693 5696 5701 5704 5706 5708 5711 5714 5717 5720 5723 5725 5728 5731 5733 5736 5740 5743 5747 5751 5756 5760 5762 5765 5769 5773 5775 5777 5780 5783 5784 5786 5788 5790 5791 5792 5794 5796 5799 5800 5801 5803 5804 5804 5805 5805